Miscellaneous Local Product
Issued by NWS North Platte, NE

Home | Current Version | Previous Version | Graphics & Text | Print | Product List | Glossary On
Versions: 1 2 3 4 5 6 7 8 9 10 11 12 13 14 15 16 17 18 19 20 21 22 23 24 25 26 27 28 29 30 31 32 33 34 35 36 37 38 39 40 41 42 43 44 45 46 47 48 49 50
000
AXUS43 KLBF 061410
MISLBF


WESTERN AND NORTH CENTRAL NEBRASKA HOURLY WEATHER ROUNDUP
NATIONAL WEATHER SERVICE NORTH PLATTE NE
900 AM CDT MON JUL 06 2015

***STATIONS NOT REPORTING VARIABLES SUCH AS SKY/WEATHER OR
PRESSURE ARE PROVIDED BY THE NEBRASKA DEPARTMENT OF
ROADS...RAWS...AND APRS NETWORKS...AND ARE NOT UNDER
NATIONAL WEATHER SERVICE QUALITY CONTROL***

...OBSERVATIONS IN AND NEAR THE EASTERN PANHANDLE OF NEBRASKA...

CITY           SKY/WX    TMP DP  RH WIND       PRES   REMARKS
PINE RIDGE     CLOUDY    61  57  87 N10       30.18S FOG
CHADRON        CLOUDY    60  57  89 N7        30.20R FOG
ALLIANCE       CLOUDY    59  56  89 N14       30.18R FOG
SIDNEY         CLOUDY    59  57  93 NE17G25   30.19R
WHITECLAY        N/A     60  56  85 E8          N/A
CRESCENT LAKE    N/A     60  57  90 N12G18      N/A
BIG SPRINGS      N/A     64  59  83 N12         N/A
$$

...OBSERVATIONS IN NORTH CENTRAL NEBRASKA...

CITY           SKY/WX    TMP DP  RH WIND       PRES   REMARKS
VALENTINE      CLOUDY    64  60  87 N12       30.10R FOG
THEDFORD       CLOUDY    63  60  90 N12G18    30.09F FOG
AINSWORTH      DRIZZLE   63  63 100 N14G24    30.08R
O`NEILL        RAIN      66  65  98 N12       30.01R
ORD            CLOUDY    67  65  93 N12G21    29.97R
BROKEN BOW     CLOUDY    67  63  87 N22G31    30.00R
VALENTINE NWR    N/A     61  60  95 N13G21      N/A
SPRINGVIEW       N/A     63  60  91 NE6G13      N/A
HALSEY           N/A     61  60  97 N9G20       N/A
BREWSTER         N/A     67  64  93 N17         N/A
ROSE             N/A     75  75 100 S17         N/A
NEWPORT          N/A     65  65  99 W10         N/A
CHAMBERS         N/A     66  65  96 N5G13       N/A
EWING            N/A     66  64  95 N9G17       N/A
$$

...OBSERVATIONS IN SOUTHWEST NEBRASKA AND FAR NORTHEAST COLORADO...

CITY           SKY/WX    TMP DP  RH WIND       PRES   REMARKS
WRAY           CLOUDY    67  59  76 N17       30.11R
HOLYOKE        CLOUDY    64  59  82 N20G26    30.13R
IMPERIAL       CLOUDY    64  60  87 N20G26    30.08R
OGALLALA       CLOUDY    64  59  85 N17G23    30.11R
NORTH PLATTE   CLOUDY    65  60  84 N12       30.05R
MCCOOK         CLOUDY    67  63  87 N18       29.99R
LEXINGTON      CLOUDY    68  64  87 N18G26    29.98R
PAXTON           N/A     64  61  89 N12         N/A
GOTHENBURG       N/A     67  60  78 N15         N/A
CALLAWAY         N/A     64  63  97 N14         N/A
$$

...NORTH PLATTE AREA...

CITY           SKY/WX    TMP DP  RH WIND       PRES   REMARKS
AIRPORT        CLOUDY    65  60  84 N12       30.05R
DOWNTOWN         N/A     64  60  87 N12G20      N/A
HILLCREST        N/A     64  61  90 N18G26      N/A
$$

...SOME WEATHER OBSERVATIONS FROM AROUND THE REGION...

CITY           SKY/WX    TMP DP  RH WIND       PRES   REMARKS
DENVER         LGT RAIN  59  58  96 N10       30.23R FOG
LARAMIE        LGT RAIN  52  51  97 NE8       30.31R
CHEYENNE       LGT RAIN  55  54  96 NE12      30.27R FOG
SCOTTSBLUFF    CLOUDY    60  55  83 NE10      30.21R HAZE
RAPID CITY     CLOUDY    59  54  83 N16       30.21R
PIERRE         CLOUDY    66  62  87 N13       30.06R FOG
WINNER         CLOUDY    67  63  87 N14       30.07R FOG
SIOUX FALLS    CLOUDY    69  68  96 N13       29.90R
OMAHA          LGT RAIN  74  71  91 N5        29.87R
GRAND ISLAND   CLOUDY    72  69  90 N12       29.93R
KANSAS CITY    CLOUDY    78  72  81 S14       29.92S
WICHITA        PTSUNNY   81  70  69 S14       29.89R
HAYS           MOSUNNY   82  64  54 W12       29.86R
LIBERAL        SUNNY     77  64  65 NW13      29.95R
GOODLAND       CLOUDY    65  61  87 N23G31    30.05R
$$



USA.gov is the U.S. government's official web portal to all federal, state and local government web resources and services.